User: anonymous   Login
Location: State Line Observation Field
(36.5320°N, 77.5360°W)
Time: 04:28:25
(UTC-04:00)
Language:

KKS-1 - Orbit

View from above orbital plane
View from above orbital plane
View from above satellite
View from above satellite

Ground track
Ground track

The orbit data is extracted from the following two-line orbital elements,

1 33499U 09002H   21130.90647425  .00000116  00000-0  24838-4 0  9990
2 33499  98.2741   0.0334 0009528 153.3637 206.8063 14.75650881660870
Epoch (UTC): 10 May 2021 21:45:19
Eccentricity: 0.0009528
inclination: 98.2741°
perigee height: 636 km
apogee height: 650 km
right ascension of ascending node: 0.0334°
argument of perigee: 153.3637°
revolutions per day: 14.75650881
mean anomaly at epoch: 206.8063°
orbit number at epoch: 66087

The dashed part of the orbit path shows where the satellite is in the earth's shadow,  

DLR